User: anonymous   Login
Location: Unspecified
(0.0000°N, 0.0000°E)
Time: 02:57:43
(UTC+02:00)
Language:

Cosmos 1898 Rocket - Orbit

View from above orbital plane
View from above orbital plane
View from above satellite
View from above satellite

Ground track
Ground track

The orbit data is extracted from the following two-line orbital elements,

1 18586U 87098B   16236.70477589  .00000039  00000-0  22268-4 0  9991
2 18586  74.0073 123.1014 0022026 250.7390 127.7940 14.36731082504645
Epoch (UTC): 23 August 2016 16:54:52
Eccentricity: 0.0022026
inclination: 74.0073°
perigee height: 753 km
apogee height: 785 km
right ascension of ascending node: 123.1014°
argument of perigee: 250.7390°
revolutions per day: 14.36731082
mean anomaly at epoch: 127.7940°
orbit number at epoch: 50464

The dashed part of the orbit path shows where the satellite is in the earth's shadow,  

DLR